TimeEST,TemperatureF,Dew PointF,Humidity,Sea Level PressureIn,VisibilityMPH,Wind Direction,Wind SpeedMPH,Gust SpeedMPH,PrecipitationIn,Events,Conditions,WindDirDegrees,DateUTC
12:15 AM,29.7,12.2,48,29.68,10.0,West,10.4,20.7,N/A,,Clear,260,2014-01-26 05:15:00
12:35 AM,28.6,10.0,46,29.70,10.0,WSW,9.2,-,N/A,,Clear,250,2014-01-26 05:35:00
12:55 AM,27.9,9.5,46,29.71,10.0,West,8.1,-,N/A,,Clear,270,2014-01-26 05:55:00
1:15 AM,28.0,9.7,46,29.71,10.0,WNW,20.7,27.6,N/A,,Clear,290,2014-01-26 06:15:00
1:35 AM,28.0,9.5,46,29.73,10.0,West,19.6,26.5,N/A,,Clear,280,2014-01-26 06:35:00
1:55 AM,26.8,9.5,48,29.75,10.0,West,8.1,-,N/A,,Clear,270,2014-01-26 06:55:00
2:15 AM,27.0,8.8,46,29.77,10.0,West,13.8,20.7,N/A,,Clear,280,2014-01-26 07:15:00
2:35 AM,25.7,9.7,51,29.78,10.0,West,11.5,17.3,N/A,,Clear,270,2014-01-26 07:35:00
2:55 AM,25.0,9.7,52,29.78,10.0,West,9.2,17.3,N/A,,Clear,270,2014-01-26 07:55:00
3:15 AM,24.4,9.0,52,29.80,10.0,West,4.6,-,N/A,,Clear,260,2014-01-26 08:15:00
3:35 AM,24.3,7.7,49,29.80,10.0,WSW,6.9,-,N/A,,Clear,240,2014-01-26 08:35:00
3:55 AM,23.7,7.9,51,29.80,10.0,West,5.8,-,N/A,,Clear,280,2014-01-26 08:55:00
4:15 AM,21.2,7.9,57,29.81,10.0,West,8.1,-,N/A,,Clear,280,2014-01-26 09:15:00
4:35 AM,22.1,8.4,56,29.84,10.0,West,3.5,-,N/A,,Clear,260,2014-01-26 09:35:00
4:55 AM,19.9,7.9,60,29.85,10.0,Calm,Calm,-,N/A,,Clear,0,2014-01-26 09:55:00
5:15 AM,15.4,8.4,74,29.85,10.0,Calm,Calm,-,N/A,,Clear,0,2014-01-26 10:15:00
5:35 AM,14.0,9.1,81,29.85,10.0,Calm,Calm,-,N/A,,Clear,0,2014-01-26 10:35:00
5:55 AM,16.5,7.7,68,29.87,10.0,Calm,Calm,-,N/A,,Clear,0,2014-01-26 10:55:00
6:15 AM,12.4,8.2,83,29.87,10.0,ESE,4.6,-,N/A,,Clear,110,2014-01-26 11:15:00
6:35 AM,12.7,8.2,82,29.89,10.0,Calm,Calm,-,N/A,,Clear,0,2014-01-26 11:35:00
6:55 AM,12.0,8.6,86,29.90,10.0,SE,4.6,-,N/A,,Clear,140,2014-01-26 11:55:00
7:15 AM,12.7,8.8,84,29.90,10.0,Calm,Calm,-,N/A,,Clear,0,2014-01-26 12:15:00
7:35 AM,10.8,8.4,90,29.89,10.0,Calm,Calm,-,N/A,,Clear,0,2014-01-26 12:35:00
7:55 AM,12.4,9.7,89,29.90,10.0,Calm,Calm,-,N/A,,Clear,0,2014-01-26 12:55:00
8:15 AM,16.3,11.3,81,29.90,10.0,ESE,3.5,-,N/A,,Clear,120,2014-01-26 13:15:00
8:35 AM,18.5,12.2,76,29.89,10.0,Calm,Calm,-,N/A,,Clear,0,2014-01-26 13:35:00
8:55 AM,23.0,10.9,60,29.88,10.0,Calm,Calm,-,N/A,,Clear,0,2014-01-26 13:55:00
9:15 AM,24.8,8.8,51,29.89,10.0,Calm,Calm,-,N/A,,Clear,0,2014-01-26 14:15:00
9:35 AM,26.4,10.4,51,29.90,10.0,Calm,Calm,-,N/A,,Clear,0,2014-01-26 14:35:00
9:55 AM,29.3,9.1,43,29.90,10.0,SSW,5.8,-,N/A,,Clear,210,2014-01-26 14:55:00
10:15 AM,30.4,9.5,42,29.89,10.0,SW,5.8,-,N/A,,Clear,230,2014-01-26 15:15:00
10:35 AM,31.1,9.7,41,29.89,10.0,South,5.8,-,N/A,,Clear,190,2014-01-26 15:35:00
10:55 AM,31.6,9.5,40,29.89,10.0,SSW,6.9,-,N/A,,Clear,210,2014-01-26 15:55:00
11:15 AM,32.0,9.7,39,29.88,10.0,SSW,8.1,-,N/A,,Clear,200,2014-01-26 16:15:00
11:35 AM,32.0,10.0,40,29.87,10.0,South,5.8,-,N/A,,Clear,190,2014-01-26 16:35:00
11:55 AM,31.6,9.9,40,29.86,10.0,SSW,6.9,-,N/A,,Scattered Clouds,210,2014-01-26 16:55:00
12:15 PM,31.5,10.2,41,29.85,10.0,South,5.8,-,N/A,,Mostly Cloudy,190,2014-01-26 17:15:00
12:35 PM,31.5,9.5,40,29.84,10.0,SSW,10.4,-,N/A,,Overcast,200,2014-01-26 17:35:00
12:55 PM,31.6,10.2,41,29.82,10.0,SSW,9.2,-,N/A,,Overcast,200,2014-01-26 17:55:00
1:15 PM,31.8,11.5,43,29.82,10.0,SSW,5.8,-,N/A,,Overcast,210,2014-01-26 18:15:00
1:35 PM,32.0,11.1,42,29.82,10.0,SSW,3.5,-,N/A,,Overcast,210,2014-01-26 18:35:00
1:55 PM,32.0,12.0,44,29.84,10.0,SSW,4.6,-,N/A,,Overcast,210,2014-01-26 18:55:00
2:15 PM,32.4,12.0,43,29.84,10.0,SSW,4.6,-,N/A,,Overcast,200,2014-01-26 19:15:00
2:35 PM,32.9,12.7,43,29.82,10.0,South,5.8,-,N/A,,Overcast,170,2014-01-26 19:35:00
2:55 PM,33.8,12.7,42,29.81,10.0,South,10.4,-,N/A,,Mostly Cloudy,190,2014-01-26 19:55:00
3:15 PM,35.1,13.1,40,29.79,10.0,South,8.1,-,N/A,,Mostly Cloudy,180,2014-01-26 20:15:00
3:35 PM,35.6,13.3,40,29.79,10.0,South,8.1,-,N/A,,Mostly Cloudy,170,2014-01-26 20:35:00
3:55 PM,34.2,12.9,42,29.78,10.0,South,8.1,-,N/A,,Mostly Cloudy,180,2014-01-26 20:55:00
4:15 PM,35.1,13.1,40,29.78,10.0,South,4.6,-,N/A,,Clear,180,2014-01-26 21:15:00
4:35 PM,35.2,13.5,41,29.79,10.0,Calm,Calm,-,N/A,,Mostly Cloudy,0,2014-01-26 21:35:00
4:55 PM,35.1,14.2,42,29.79,10.0,SSE,3.5,-,N/A,,Overcast,160,2014-01-26 21:55:00
5:15 PM,34.3,14.0,43,29.79,10.0,Calm,Calm,-,N/A,,Overcast,0,2014-01-26 22:15:00
5:35 PM,32.4,18.1,56,29.80,10.0,Calm,Calm,-,N/A,,Overcast,0,2014-01-26 22:35:00
5:55 PM,32.7,14.4,47,29.79,10.0,Calm,Calm,-,N/A,,Overcast,0,2014-01-26 22:55:00
6:15 PM,31.1,17.1,56,29.79,10.0,Calm,Calm,-,N/A,,Mostly Cloudy,0,2014-01-26 23:15:00
6:35 PM,26.2,16.3,66,29.79,10.0,Calm,Calm,-,N/A,,Scattered Clouds,0,2014-01-26 23:35:00
6:55 PM,23.2,16.3,75,29.78,10.0,Calm,Calm,-,N/A,,Clear,0,2014-01-26 23:55:00
7:15 PM,23.7,15.6,71,29.78,10.0,Calm,Calm,-,N/A,,Clear,0,2014-01-27 00:15:00
7:35 PM,20.3,16.9,87,29.77,10.0,Calm,Calm,-,N/A,,Clear,0,2014-01-27 00:35:00
7:55 PM,21.7,16.0,78,29.77,10.0,Calm,Calm,-,N/A,,Clear,0,2014-01-27 00:55:00
8:15 PM,21.7,16.0,78,29.77,10.0,Calm,Calm,-,N/A,,Clear,0,2014-01-27 01:15:00
8:35 PM,18.7,16.0,89,29.77,10.0,Calm,Calm,-,N/A,,Clear,0,2014-01-27 01:35:00
8:55 PM,20.7,16.0,82,29.77,10.0,Calm,Calm,-,N/A,,Clear,0,2014-01-27 01:55:00
9:15 PM,19.2,16.0,87,29.76,10.0,Calm,Calm,-,N/A,,Clear,0,2014-01-27 02:15:00
9:35 PM,18.7,16.2,90,29.76,10.0,Calm,Calm,-,N/A,,Clear,0,2014-01-27 02:35:00
9:55 PM,19.8,15.4,83,29.77,10.0,SE,3.5,-,N/A,,Clear,140,2014-01-27 02:55:00
10:15 PM,20.1,15.8,83,29.76,10.0,Calm,Calm,-,N/A,,Clear,0,2014-01-27 03:15:00
10:35 PM,17.8,15.6,91,29.76,10.0,Calm,Calm,-,N/A,,Clear,0,2014-01-27 03:35:00
10:55 PM,18.5,15.4,88,29.76,10.0,Calm,Calm,-,N/A,,Clear,0,2014-01-27 03:55:00
11:15 PM,19.4,15.3,84,29.75,10.0,Calm,Calm,-,N/A,,Clear,0,2014-01-27 04:15:00
11:35 PM,19.4,15.6,85,29.73,10.0,Calm,Calm,-,N/A,,Clear,0,2014-01-27 04:35:00
11:55 PM,20.1,16.7,87,29.72,10.0,Calm,Calm,-,N/A,,Clear,0,2014-01-27 04:55:00